This is the latest recevied weather packets stored in our database for station/object N8GD. If no packets are shown the sender has not sent any weather packets the latest 10 day(s).
| Time | Temp. | Humidity | Pressure | Rain* | Wind** | Luminosity | Snow |
|---|---|---|---|---|---|---|---|
| 1777337477 | 20° C | 46% | 1016 hPa | 0 mm | - | - | - |
| 1777336604 | 20° C | 45% | 1016.4 hPa | 0 mm | - | - | - |
| 1777336579 | 20° C | 45% | 1016.4 hPa | 0 mm | - | - | - |
| 1777335677 | 20° C | 45% | 1016.5 hPa | 0 mm | - | - | - |
| 1777334808 | 20.56° C | 44% | 1016.3 hPa | 0 mm | - | - | - |
| 1777334779 | 20.56° C | 44% | 1016.3 hPa | 0 mm | - | - | - |
| 1777333877 | 20.56° C | 43% | 1016.3 hPa | 0 mm | - | - | - |
| 1777333004 | 21.11° C | 43% | 1016.4 hPa | 0 mm | - | - | - |
| 1777332979 | 21.11° C | 43% | 1016.4 hPa | 0 mm | - | - | - |
| 1777332077 | 21.67° C | 41% | 1016.5 hPa | 0 mm | - | - | - |
| 1777331179 | 21.67° C | 41% | 1016.5 hPa | 0 mm | - | - | - |
| 1777330277 | 22.22° C | 38% | 1016.5 hPa | 0 mm | - | - | - |
| 1777329379 | 22.78° C | 37% | 1016.7 hPa | 0 mm | - | - | - |
| 1777328511 | 23.33° C | 37% | 1016.9 hPa | 0 mm | - | - | - |
| 1777328479 | 23.33° C | 37% | 1016.9 hPa | 0 mm | - | - | - |
| 1777327577 | 23.33° C | 37% | 1017.3 hPa | 0 mm | - | - | - |
| 1777326677 | 23.89° C | 38% | 1017.5 hPa | 0 mm | - | - | - |
| 1777325779 | 23.89° C | 36% | 1017.3 hPa | 0 mm | - | - | - |
| 1777324877 | 23.89° C | 37% | 1017.3 hPa | 0 mm | - | - | - |
| 1777324008 | 23.89° C | 42% | 1017.1 hPa | 0 mm | - | - | - |
| 1777323979 | 23.89° C | 42% | 1017.1 hPa | 0 mm | - | - | - |
| 1777323077 | 23.89° C | 42% | 1017.1 hPa | 0 mm | - | - | - |
| 1777322177 | 23.89° C | 38% | 1017.1 hPa | 0 mm | - | - | - |
| 1777321278 | 24.44° C | 40% | 1017.6 hPa | 0 mm | - | - | - |
| 1777320378 | 24.44° C | 38% | 1017.7 hPa | 0 mm | - | - | - |
* Rain latest hour (hover to see other rain measurements)
** Current wind speed in m/s (hover to see current wind gust speed)